Spitfire Channel Observation History
Time Wind Speed Temp Pressure Rel. Hum Rain
05/09:00pm SSE 9-10 kts n/a n/a n/a n/a
05/08:30pm SSE 9-11 kts n/a n/a n/a n/a
05/08:00pm SSE 9-10 kts n/a n/a n/a n/a
05/07:30pm SE 8-10 kts n/a n/a n/a n/a
05/07:00pm SE 9-11 kts n/a n/a n/a n/a
05/06:30pm SSE 9-11 kts n/a n/a n/a n/a
05/06:00pm SSE 8-11 kts n/a n/a n/a n/a
05/05:30pm SSE 8-9 kts n/a n/a n/a n/a
05/05:00pm SE 10-11 kts n/a n/a n/a n/a
05/04:30pm SE 10-11 kts n/a n/a n/a n/a
05/04:00pm SE 11-13 kts n/a n/a n/a n/a
05/03:30pm SSE 11-12 kts n/a n/a n/a n/a
05/03:00pm SE 9-11 kts n/a n/a n/a n/a
05/02:30pm SSE 9-12 kts n/a n/a n/a n/a
05/02:00pm SSE 11-12 kts n/a n/a n/a n/a
05/01:30pm SSE 10-12 kts n/a n/a n/a n/a
05/01:00pm SSE 12-14 kts n/a n/a n/a n/a
05/12:30pm SSE 13-16 kts n/a n/a n/a n/a
05/12:00pm SSE 13-15 kts n/a n/a n/a n/a
05/11:30am SSE 14-16 kts n/a n/a n/a n/a
05/11:00am S 16-18 kts n/a n/a n/a n/a
05/10:30am S 13-16 kts n/a n/a n/a n/a
05/10:00am S 14-17 kts n/a n/a n/a n/a
05/09:30am S 15-17 kts n/a n/a n/a n/a
05/09:00am S 15-19 kts n/a n/a n/a n/a
05/08:30am S 15-18 kts n/a n/a n/a n/a
05/08:00am S 14-17 kts n/a n/a n/a n/a
05/07:30am SSW 13-16 kts n/a n/a n/a n/a
05/07:00am S 12-15 kts n/a n/a n/a n/a
05/06:30am S 13-15 kts n/a n/a n/a n/a
05/06:00am S 14-16 kts n/a n/a n/a n/a
05/05:30am S 15-17 kts n/a n/a n/a n/a
05/05:00am S 16-18 kts n/a n/a n/a n/a
05/04:30am S 16-18 kts n/a n/a n/a n/a
05/04:00am S 16-18 kts n/a n/a n/a n/a
05/03:30am S 16-19 kts n/a n/a n/a n/a
05/03:00am S 14-17 kts n/a n/a n/a n/a
05/02:30am S 13-15 kts n/a n/a n/a n/a
05/02:00am S 15-18 kts n/a n/a n/a n/a
05/01:30am S 16-19 kts n/a n/a n/a n/a
05/01:00am S 16-18 kts n/a n/a n/a n/a
05/12:30am SSE 17-21 kts n/a n/a n/a n/a
05/12:00am S 17-20 kts n/a n/a n/a n/a
Time Wind Speed Temp Pressure Rel. Hum Rain
04/11:30pm S 17-21 kts n/a n/a n/a n/a
04/11:00pm S 17-20 kts n/a n/a n/a n/a
04/10:30pm SSE 18-23 kts n/a n/a n/a n/a
04/10:00pm SE 14-17 kts n/a n/a n/a n/a
04/09:30pm SSE 20-24 kts n/a n/a n/a n/a
04/09:00pm SSE 17-21 kts n/a n/a n/a n/a
04/08:30pm SSE 18-21 kts n/a n/a n/a n/a
04/08:00pm SSE 18-21 kts n/a n/a n/a n/a
04/07:30pm SSE 17-21 kts n/a n/a n/a n/a
04/07:00pm SSE 14-17 kts n/a n/a n/a n/a
04/06:30pm SSE 15-18 kts n/a n/a n/a n/a
04/06:00pm SSE 18-22 kts n/a n/a n/a n/a
04/05:30pm SSE 17-22 kts n/a n/a n/a n/a
04/05:00pm SSE 17-21 kts n/a n/a n/a n/a
04/04:30pm SSE 15-18 kts n/a n/a n/a n/a
04/04:00pm SE 16-20 kts n/a n/a n/a n/a
04/03:30pm SSE 16-19 kts n/a n/a n/a n/a
04/03:00pm SSE 18-21 kts n/a n/a n/a n/a
04/02:30pm SSE 18-21 kts n/a n/a n/a n/a
04/02:00pm SSE 18-22 kts n/a n/a n/a n/a
04/01:30pm SSE 16-19 kts n/a n/a n/a n/a
04/01:00pm SSE 20-22 kts n/a n/a n/a n/a
04/12:30pm SSE 17-19 kts n/a n/a n/a n/a
04/12:00pm SSE 19-21 kts n/a n/a n/a n/a
04/11:30am SSE 17-21 kts n/a n/a n/a n/a
04/11:00am SSE 19-23 kts n/a n/a n/a n/a
04/10:30am S 19-23 kts n/a n/a n/a n/a
04/10:00am S 19-23 kts n/a n/a n/a n/a
04/09:30am S 19-22 kts n/a n/a n/a n/a
04/09:00am S 18-20 kts n/a n/a n/a n/a
04/08:30am S 17-20 kts n/a n/a n/a n/a
04/08:00am S 17-20 kts n/a n/a n/a n/a
04/07:30am S 17-20 kts n/a n/a n/a n/a
04/07:00am S 17-19 kts n/a n/a n/a n/a
04/06:30am S 16-20 kts n/a n/a n/a n/a
04/06:00am S 16-19 kts n/a n/a n/a n/a
04/05:30am S 17-21 kts n/a n/a n/a n/a
04/05:00am S 18-21 kts n/a n/a n/a n/a
04/04:30am SSE 18-22 kts n/a n/a n/a n/a
04/04:00am SSE 16-20 kts n/a n/a n/a n/a
04/03:30am SSE 17-19 kts n/a n/a n/a n/a
04/03:00am S 17-19 kts n/a n/a n/a n/a
04/02:30am S 18-21 kts n/a n/a n/a n/a
04/02:00am S 16-23 kts n/a n/a n/a n/a
04/01:30am S 14-17 kts n/a n/a n/a n/a
04/01:00am S 12-14 kts n/a n/a n/a n/a
04/12:30am SSW 11-13 kts n/a n/a n/a n/a
04/12:00am S 13-16 kts n/a n/a n/a n/a
Time Wind Speed Temp Pressure Rel. Hum Rain
03/11:30pm SSE 16-18 kts n/a n/a n/a n/a
03/11:00pm SSE 16-18 kts n/a n/a n/a n/a
03/10:30pm SSE 14-16 kts n/a n/a n/a n/a
03/10:00pm SSE 14-16 kts n/a n/a n/a n/a
03/09:30pm SSE 12-15 kts n/a n/a n/a n/a
03/09:00pm SE 13-15 kts n/a n/a n/a n/a
03/08:30pm SE 11-14 kts n/a n/a n/a n/a
03/08:00pm SE 9-10 kts n/a n/a n/a n/a
03/07:30pm ESE 8-10 kts n/a n/a n/a n/a
03/07:00pm E 8-10 kts n/a n/a n/a n/a
03/06:30pm E 9-11 kts n/a n/a n/a n/a
03/06:00pm E 9-11 kts n/a n/a n/a n/a
03/05:30pm E 9-10 kts n/a n/a n/a n/a
03/05:00pm ENE 7-9 kts n/a n/a n/a n/a
03/04:30pm E 6-8 kts n/a n/a n/a n/a
03/04:00pm E 7-9 kts n/a n/a n/a n/a
03/03:30pm ESE 6-8 kts n/a n/a n/a n/a
03/03:00pm ESE 5-6 kts n/a n/a n/a n/a
03/02:30pm SE 4-5 kts n/a n/a n/a n/a
03/02:00pm S 4-5 kts n/a n/a n/a n/a
03/01:30pm S 5-6 kts n/a n/a n/a n/a
03/01:00pm SSW 4-5 kts n/a n/a n/a n/a
03/12:30pm S 4-5 kts n/a n/a n/a n/a
03/12:00pm SSE 6-8 kts n/a n/a n/a n/a
03/11:30am S 7-9 kts n/a n/a n/a n/a
03/11:00am SSW 9-11 kts n/a n/a n/a n/a
03/10:30am SSW 10-12 kts n/a n/a n/a n/a
03/10:00am SSW 7-10 kts n/a n/a n/a n/a
03/09:30am SSW 9-11 kts n/a n/a n/a n/a
03/09:00am SW 9-12 kts n/a n/a n/a n/a
03/08:30am SW 10-12 kts n/a n/a n/a n/a
03/08:00am SW 13-15 kts n/a n/a n/a n/a
03/07:30am SW 11-13 kts n/a n/a n/a n/a
03/07:00am WSW 13-16 kts n/a n/a n/a n/a
03/06:30am WSW 15-18 kts n/a n/a n/a n/a
03/06:00am WSW 13-16 kts n/a n/a n/a n/a
03/05:30am WSW 12-16 kts n/a n/a n/a n/a
03/05:00am WSW 13-17 kts n/a n/a n/a n/a
03/04:30am WSW 11-14 kts n/a n/a n/a n/a
03/04:00am WSW 13-15 kts n/a n/a n/a n/a
03/03:30am WSW 14-16 kts n/a n/a n/a n/a
03/03:00am WSW 10-12 kts n/a n/a n/a n/a
03/02:30am WSW 9-11 kts n/a n/a n/a n/a
03/02:00am WSW 11-13 kts n/a n/a n/a n/a
03/01:30am WSW 13-15 kts n/a n/a n/a n/a
03/01:00am WSW 11-13 kts n/a n/a n/a n/a
03/12:30am WSW 14-17 kts n/a n/a n/a n/a
03/12:00am WSW 15-19 kts n/a n/a n/a n/a